Regional Weather Roundup
Issued by NWS Burlington, VT

Current Version | Previous Version | Text Only | Print | Product List | Glossary On
Versions: 1 2 3 4 5 6 7 8 9 10 11 12 13 14 15 16 17 18 19 20 21 22 23 24 25 26 27 28 29 30 31 32 33 34 35 36 37 38 39 40 41 42 43 44 45 46 47 48 49 50
000
ASUS41 KBTV 021530
RWRBTV
VERMONT REGIONAL WEATHER ROUNDUP
NATIONAL WEATHER SERVICE BURLINGTON VT
1000 AM EST MON MAR 02 2015

NOTE: "FAIR" INDICATES FEW OR NO CLOUDS BELOW 12,000 FEET WITH NO
SIGNIFICANT WEATHER AND/OR OBSTRUCTIONS TO VISIBILITY.

* THESE REPORTS ARE NOT UNDER NWS QUALITY CONTROL AND/OR DO NOT
  REPORT WEATHER SUCH AS PRECIPITATION AND FOG.

VTZ001>019-021600-
_____VERMONT_____


CITY           SKY/WX    TMP DP  RH WIND       PRES   REMARKS
BURLINGTON     PTSUNNY   25  12  58 NW15      30.01R WCI  13
MONTPELIER     LGT SNOW  21  15  78 NW7G17    29.96R
MORRISVILLE    FLURRIES  22  12  65 N7        29.97S
ST. JOHNSBURY*   N/A     24  15  68 MISG      29.91S
LYNDONVILLE*   LGT SNOW  22  12  66 SW14G24   29.91R WCI   9
MIDDLEBURY*    CLOUDY    25  19  76 N6        30.00R
RUTLAND*       CLOUDY    25  14  63 W17G26    29.98R WCI  11
SPRINGFIELD    PTSUNNY   28  14  55 W16G23    29.96R WCI  16
HIGHGATE*      CLOUDY    24  13  65 W6        30.02R
NEWPORT*       LGT SNOW  21  14  74 W6        29.93R
BENNINGTON     CLOUDY    25  15  66 W8G20     30.02R
SUTTON*          N/A     19 N/A N/A MISG        N/A
GALLUP MILLS*    N/A     21 N/A N/A MISG        N/A
MT. MANSFIELD*   N/A      9 N/A N/A CALM        N/A

_____LAKE CHAMPLAIN_____


CITY           SKY/WX    TMP DP  RH WIND       PRES   REMARKS
BURTON ISLAND*   N/A     23  16  74 W6          N/A
COLCHESTER RF*   N/A     27  16  63 NW15        N/A  WCI  15
DIAMOND ISL*     N/A     27  23  86 W5          N/A

$$

NYZ007-026>031-035-052-083-021600-
_____NORTHERN NEW YORK_____


CITY           SKY/WX    TMP DP  RH WIND       PRES   REMARKS
PLATTSBURGH    MOSUNNY   27  12  53 W9G18     30.01S
SARANAC LAKE   LGT SNOW  19  13  77 W12G21    29.93S WCI   7
MASSENA        CLOUDY    22  17  81 W13       30.07S WCI  10
OGDENSBURG*    PTSUNNY   28  19  69 SW8G17    30.07F
POTSDAM*       LGT SNOW  21  19  93 W14       30.05F WCI   8
STARK FALLS*     N/A     18 N/A N/A W10         N/A  WCI   6
WATERTOWN      LGT SNOW  25  20  81 W15       30.13S WCI  13
FT DRUM        LGT SNOW  23  19  86 W14G20    30.08F FOG     WCI  11
ALBANY         MOSUNNY   27  13  55 NW20G28   30.09R WCI  13
GLENS FALLS    CLOUDY    28  12  51 W15G21    30.04R WCI  16

$$
NHZ002-005-011-021600-
_____NEW HAMPSHIRE_____


CITY           SKY/WX    TMP DP  RH WIND       PRES   REMARKS
LEBANON        CLOUDY    26  19  74 CALM      29.94S
KEENE          CLOUDY    27  19  74 CALM      29.97R
MT WASHINGTON  SNOW       0   0 100 NW70G79     N/A  VSB 0   WCI -35
PLYMOUTH       LGT SNOW  28  19  69 W14G24    29.91R WCI  17
WHITEFIELD     LGT SNOW  23  16  74 W6        29.88F

$$

_____REGIONAL QUEBEC LOCATIONS_____


CITY           SKY/WX    TMP DP  RH WIND       PRES   REMARKS
MONTREAL       SNOWSHWR  21  16  79 W13G22    30.01S BLWGSNOWWCI   9
QUEBEC CITY    PTSUNNY   21  14  73 W13       29.85F WCI   9
SHERBROOKE     LGT SNOW  21  16  79 W16G23    29.88S WCI   7

_____REGIONAL ONTARIO LOCATIONS_____


CITY           SKY/WX    TMP DP  RH WIND       PRES   REMARKS
OTTAWA         PTSUNNY   23  16  74 W14       30.03F WCI  11

______KEY______
VSB  - VISIBILITY IN MILES
WCI  - WIND CHILL INDEX
HX   - HEAT INDEX
$$
NNNN


USA.gov is the U.S. government's official web portal to all federal, state and local government web resources and services.